[[{"header":{"parameterUnit":"m.s-1","parameterCategory":1,"la1":30.2991,"la2":30.254,"lo1":-89.0895,"lo2":-89.0444,"dy":0.0017,"dx":0.0017,"nx":28,"ny":28,"refTime":"2026-02-01T03:00:00:Z","depth":0,"parameterNumber":2,"parameterNumberName":"U-component_of_WINDS"},"data":[0,0,0,0,0,0,0,0,0,0,0,0,0,0,0,0,0,0,0,0,0,0,0,0,0,0,0,0,0,0,0,0,0,0,0,0,0,0,0,0,0,0,0,0,0,0,0,0,0,0,0,0,0,0,0,0,0,0,4.4988,4.499,0,4.5231,4.5234,4.5237,4.521,4.5206,4.5202,4.5198,4.5449,4.5459,4.5469,0,0,0,0,0,0,0,0,0,0,0,0,0,4.4499,4.4508,4.4988,4.4991,4.4994,4.5231,4.5234,4.5238,4.521,4.5206,4.5201,4.5196,4.5446,4.5458,4.547,0,0,0,0,0,0,0,0,0,0,0,0,0,4.4724,4.4511,4.4987,4.5009,4.5013,4.523,4.5234,4.5238,4.5211,4.5205,4.52,4.5194,4.5442,4.5457,4.5472,4.5684,0,0,4.5519,4.5526,0,0,0,0,0,0,0,0,4.4711,4.4742,4.5002,4.5008,4.5013,4.5184,4.5154,4.5388,4.5213,4.5136,4.5198,4.5191,4.5366,4.5387,4.5445,4.5695,4.5706,4.552,4.553,4.5536,4.5541,0,0,0,0,0,0,0,4.4696,4.4731,4.5084,4.5006,4.5013,4.5006,4.5032,4.5198,4.5281,4.5142,4.5141,4.517,4.5367,4.5431,4.5451,4.571,4.552,4.5534,4.5543,4.5549,4.6144,4.6151,0,0,0,0,0,0,4.4675,4.4719,4.5076,4.5091,4.4845,4.502,4.5048,4.5135,4.5279,4.5295,4.5175,4.5168,4.5407,4.5433,4.546,4.5716,4.5536,4.5551,4.556,4.6138,4.6146,4.6153,0,0,0,0,0,0,4.4664,4.4707,4.5066,4.4905,4.495,4.5034,4.5132,4.5143,4.5206,4.5303,4.5318,4.5224,4.5404,4.5438,4.5628,4.5724,4.5558,4.5572,4.613,4.614,4.6149,4.6231,0,0,0,0,0,0,4.4651,4.4703,4.4785,4.4907,4.4959,4.523,4.5138,4.5152,4.5233,4.5226,4.5353,4.5369,4.5402,4.5605,4.5643,4.5743,4.5584,4.6122,4.6135,4.6146,4.622,4.6242,4.6262,0,0,0,0,0,4.4633,4.4799,4.4789,4.4832,4.5062,4.5236,4.5266,4.53,4.5241,4.5323,4.5385,4.5365,4.5708,4.5625,4.5667,4.5773,4.6116,4.6131,4.6145,4.6211,4.6238,4.6261,0,0,0,0,0,0,4.4686,4.4815,4.4806,4.5015,4.5115,4.5231,4.5336,4.5328,4.5446,4.5435,4.5472,4.5501,4.5693,4.5752,4.5657,4.5985,4.5904,4.5928,4.5939,4.5966,4.5986,4.5967,4.5597,0,0,0,0,0,4.4722,4.4853,4.4958,4.5133,4.5183,4.5251,4.5328,4.5346,4.545,4.5492,4.5569,4.5671,4.5802,4.5887,4.6013,4.6229,4.6256,4.6323,4.6343,4.636,4.638,4.6497,4.6527,4.6201,4.6201,4.6201,0,0,4.4799,4.4885,4.4965,4.5146,4.5225,4.5359,4.5287,4.5432,4.5532,4.5515,4.5698,4.5757,4.5874,4.6077,4.6171,4.6133,4.6476,4.6379,4.6391,4.6402,4.6515,4.6546,4.6573,4.6211,4.6209,4.6208,0,0,4.5005,4.5084,4.5238,4.5318,4.5438,4.5482,4.5519,4.5637,4.5675,4.586,4.5849,4.5969,4.6194,4.6277,4.6349,4.6586,4.6571,4.6626,4.6734,4.6848,4.6873,4.6896,4.698,4.7009,4.6646,4.6646,4.6646,0,4.5084,4.5285,4.5318,4.5464,4.5544,4.5534,4.5689,4.5766,4.5922,4.5977,4.5932,4.6213,4.6292,4.6513,4.6571,4.663,4.6673,4.6611,4.6867,4.689,4.6912,4.6992,4.7024,4.6652,4.6651,4.6651,4.665,0,4.5376,4.5516,4.5626,4.5775,4.5867,4.6018,4.6072,4.6162,4.6171,4.622,4.6407,4.6501,4.6644,4.6699,4.671,4.6922,4.6895,4.6859,4.6778,4.6949,4.7024,4.7055,4.666,4.6658,4.6656,4.6655,0,0,4.5624,4.5788,4.5828,4.5895,4.6026,4.6135,4.6285,4.6425,4.65,4.6608,4.6733,4.6924,4.689,4.6972,4.6992,4.7092,4.7272,4.7044,4.7047,4.7082,4.7511,4.7536,4.7571,4.7264,4.727,4.7275,4.75,0,4.5842,4.6106,4.6139,4.6374,4.6502,4.6494,4.6625,4.6719,4.6769,4.6885,4.694,4.7073,4.702,4.7069,4.7168,4.723,4.7359,4.7214,4.7381,4.7386,4.735,4.7611,4.7639,4.7847,4.753,4.7535,4.7539,0,4.6132,4.6247,4.6494,4.6606,4.6662,4.6778,4.6908,4.702,4.7127,4.7156,4.7246,4.7254,4.7408,4.7322,4.7534,4.7435,4.7505,4.7546,4.7555,4.7571,4.7472,4.7632,4.7914,4.7945,4.7586,4.7582,4.7579,0,4.6286,4.6502,4.6677,4.6735,4.6871,4.6953,4.7014,4.7115,4.7197,4.7311,4.7364,4.7495,4.7567,4.7668,4.771,4.7643,4.792,4.7837,4.7947,4.7946,4.8005,4.8001,4.8301,4.8053,4.8053,4.8052,4.8051,0,4.6526,4.6677,4.6748,4.6856,4.7024,4.7061,4.7227,4.7285,4.7375,4.7493,4.7495,4.7606,4.7656,4.7775,4.781,4.798,4.8012,4.8039,4.8046,4.8039,4.8035,4.8084,4.807,4.806,4.8058,4.8057,4.8055,0,4.6726,4.678,4.697,4.7083,4.7114,4.7234,4.733,4.7435,4.7482,4.7632,4.767,4.7745,4.7885,4.7937,4.8109,4.8131,4.8328,4.8324,4.8291,4.8293,4.8399,4.8388,4.8741,4.8788,4.851,4.8513,4.8515,0,4.6875,4.6991,4.7116,4.7195,4.7258,4.7386,4.7468,4.7509,4.7595,4.7725,4.7813,4.7953,4.8066,4.829,4.836,4.8491,4.8489,4.8604,4.8509,4.8496,4.8489,4.8481,4.8492,4.8621,4.8624,4.8626,4.8628,0,4.7134,4.7154,4.7273,4.7401,4.75,4.7603,4.7703,4.7768,4.7824,4.7921,4.8063,4.8151,4.8325,4.8463,4.8596,4.8659,4.8653,4.8657,4.8689,4.8682,4.8657,4.867,4.8337,4.8649,4.8647,4.8645,4.8644,4.8643,4.7312,4.7414,4.7517,4.7649,4.7728,4.7822,4.7925,4.7985,4.8104,4.8248,4.8265,4.8418,4.8521,4.87,4.8768,4.8888,4.8857,4.8904,4.8916,4.8927,4.8933,4.8639,4.8913,4.8912,4.8912,4.8911,4.8911,0,4.7569,4.7635,4.7756,4.7895,4.7999,4.7984,4.8094,4.8181,4.8316,4.8412,4.8523,4.8686,4.882,4.89,4.9034,4.9114,4.9115,4.9148,4.9142,4.9156,4.8954,4.8912,4.9145,4.9145,4.9145,4.9145,4.9145,4.9145,4.7715,4.7886,4.7919,4.8128,4.8193,4.8342,4.8406,4.8492,4.8569,4.8751,4.8861,4.8912,4.9002,4.9142,4.9263,4.9284,4.9332,4.9368,4.9385,4.9195,4.917,4.9147,4.9108,4.9379,4.9379,4.9577,4.9579,4.958]},{"header":{"parameterUnit":"m.s-1","parameterCategory":1,"la1":30.2991,"la2":30.254,"lo1":-89.0895,"lo2":-89.0444,"dy":0.0017,"dx":0.0017,"nx":28,"ny":28,"refTime":"2026-02-01T03:00:00:Z","depth":0,"parameterNumber":3,"parameterNumberName":"V-component_of_WINDS"},"data":[0,0,0,0,0,0,0,0,0,0,0,0,0,0,0,0,0,0,0,0,0,0,0,0,0,0,0,0,0,0,0,0,0,0,0,0,0,0,0,0,0,0,0,0,0,0,0,0,0,0,0,0,0,0,0,0,0,0,-1.1753,-1.1753,0,-1.1813,-1.1814,-1.1815,-1.1804,-1.1803,-1.1802,-1.1801,-1.1863,-1.1865,-1.1868,0,0,0,0,0,0,0,0,0,0,0,0,0,-1.1628,-1.1631,-1.1753,-1.1753,-1.1754,-1.1813,-1.1814,-1.1815,-1.1804,-1.1803,-1.1801,-1.18,-1.1862,-1.1865,-1.1868,0,0,0,0,0,0,0,0,0,0,0,0,0,-1.1685,-1.1631,-1.1752,-1.1756,-1.1757,-1.1813,-1.1814,-1.1815,-1.1804,-1.1803,-1.1801,-1.18,-1.1861,-1.1865,-1.1869,-1.1925,0,0,-1.1881,-1.1883,0,0,0,0,0,0,0,0,-1.1682,-1.1689,-1.1755,-1.1756,-1.1757,-1.1799,-1.1793,-1.1852,-1.1805,-1.1786,-1.1801,-1.1799,-1.1843,-1.1848,-1.1863,-1.1928,-1.1931,-1.1881,-1.1884,-1.1885,-1.1886,0,0,0,0,0,0,0,-1.1678,-1.1687,-1.1777,-1.1756,-1.1757,-1.1755,-1.1761,-1.1804,-1.1823,-1.1788,-1.1787,-1.1794,-1.1843,-1.1859,-1.1865,-1.1932,-1.1881,-1.1885,-1.1887,-1.1889,-1.2047,-1.2048,0,0,0,0,0,0,-1.1673,-1.1684,-1.1775,-1.1778,-1.1715,-1.1758,-1.1765,-1.1787,-1.1822,-1.1826,-1.1796,-1.1794,-1.1853,-1.186,-1.1867,-1.1935,-1.1885,-1.1889,-1.1891,-1.2045,-1.2047,-1.2049,0,0,0,0,0,0,-1.167,-1.1681,-1.1772,-1.1731,-1.1742,-1.1762,-1.1787,-1.1789,-1.1805,-1.1828,-1.1832,-1.1809,-1.1852,-1.1861,-1.1911,-1.1937,-1.1891,-1.1894,-1.2043,-1.2046,-1.2048,-1.2073,0,0,0,0,0,0,-1.1667,-1.168,-1.1702,-1.1731,-1.1745,-1.1815,-1.1789,-1.1792,-1.1812,-1.181,-1.1841,-1.1845,-1.1852,-1.1905,-1.1915,-1.1942,-1.1897,-1.204,-1.2044,-1.2047,-1.207,-1.2076,-1.2082,0,0,0,0,0,-1.1662,-1.1706,-1.1703,-1.1714,-1.1772,-1.1817,-1.1824,-1.1831,-1.1814,-1.1836,-1.1851,-1.1844,-1.1933,-1.191,-1.1921,-1.195,-1.2039,-1.2043,-1.2047,-1.2067,-1.2075,-1.2082,0,0,0,0,0,0,-1.1679,-1.171,-1.1707,-1.1762,-1.1787,-1.1815,-1.1843,-1.1839,-1.1869,-1.1866,-1.1873,-1.1881,-1.1931,-1.1946,-1.192,-1.2007,-1.1984,-1.199,-1.1995,-1.2003,-1.2009,-1.2004,-1.1901,0,0,0,0,0,-1.1689,-1.1723,-1.1748,-1.1794,-1.1807,-1.1823,-1.1843,-1.1846,-1.1872,-1.1882,-1.1901,-1.1927,-1.1961,-1.1983,-1.2015,-1.2072,-1.2079,-1.2098,-1.2103,-1.2108,-1.2114,-1.2145,-1.2154,-1.2063,-1.2062,-1.2062,0,0,-1.171,-1.1731,-1.1752,-1.1798,-1.1818,-1.1853,-1.1832,-1.1869,-1.1896,-1.1888,-1.1936,-1.1951,-1.198,-1.2034,-1.2059,-1.2048,-1.214,-1.2113,-1.2117,-1.212,-1.215,-1.2159,-1.2167,-1.2065,-1.2065,-1.2064,0,0,-1.1766,-1.1786,-1.1826,-1.1847,-1.1877,-1.1887,-1.1897,-1.1926,-1.1936,-1.1984,-1.1979,-1.2011,-1.2069,-1.209,-1.2108,-1.2173,-1.2168,-1.2184,-1.2214,-1.2245,-1.2252,-1.2259,-1.2282,-1.229,-1.2189,-1.2189,-1.2189,0,-1.1789,-1.1841,-1.1848,-1.1886,-1.1907,-1.1902,-1.1943,-1.1963,-1.2002,-1.2016,-1.2004,-1.2077,-1.2096,-1.2155,-1.2171,-1.2186,-1.2197,-1.218,-1.2251,-1.2257,-1.2263,-1.2286,-1.2294,-1.2191,-1.2191,-1.2191,-1.219,0,-1.1867,-1.1904,-1.1933,-1.1971,-1.1995,-1.2034,-1.2047,-1.2071,-1.2072,-1.2084,-1.2134,-1.2157,-1.2194,-1.2208,-1.221,-1.2268,-1.226,-1.2249,-1.2226,-1.2274,-1.2295,-1.2303,-1.2193,-1.2193,-1.2192,-1.2192,0,0,-1.1935,-1.1977,-1.1987,-1.2005,-1.2038,-1.2066,-1.2106,-1.2143,-1.2162,-1.219,-1.2224,-1.2273,-1.2263,-1.2284,-1.2288,-1.2316,-1.2366,-1.2301,-1.2302,-1.2312,-1.2431,-1.2439,-1.2449,-1.2363,-1.2364,-1.2366,-1.2429,0,-1.1994,-1.2064,-1.2072,-1.2134,-1.2168,-1.2164,-1.2199,-1.2223,-1.2236,-1.2266,-1.228,-1.2315,-1.2299,-1.2312,-1.2339,-1.2354,-1.239,-1.235,-1.2394,-1.2396,-1.2387,-1.246,-1.2468,-1.2526,-1.2437,-1.2438,-1.2439,0,-1.2073,-1.2102,-1.2168,-1.2197,-1.2212,-1.2243,-1.2277,-1.2306,-1.2334,-1.2341,-1.2365,-1.2366,-1.2407,-1.2382,-1.244,-1.2412,-1.2431,-1.2441,-1.2444,-1.2448,-1.242,-1.2466,-1.2545,-1.2554,-1.2452,-1.2451,-1.245,0,-1.2115,-1.2172,-1.2219,-1.2234,-1.2269,-1.2291,-1.2306,-1.2333,-1.2354,-1.2384,-1.2398,-1.2433,-1.2452,-1.2479,-1.2489,-1.247,-1.2546,-1.2522,-1.2553,-1.2553,-1.2568,-1.2567,-1.2652,-1.2581,-1.2581,-1.2581,-1.258,0,-1.2181,-1.2221,-1.2239,-1.2267,-1.2313,-1.2321,-1.2366,-1.238,-1.2404,-1.2436,-1.2435,-1.2465,-1.2477,-1.2509,-1.2517,-1.2563,-1.2572,-1.2579,-1.258,-1.2579,-1.2578,-1.2591,-1.2587,-1.2583,-1.2583,-1.2582,-1.2582,0,-1.2236,-1.2249,-1.23,-1.2329,-1.2337,-1.237,-1.2395,-1.2423,-1.2435,-1.2475,-1.2485,-1.2504,-1.2542,-1.2555,-1.26,-1.2606,-1.266,-1.2658,-1.265,-1.265,-1.268,-1.2677,-1.2776,-1.279,-1.271,-1.2711,-1.2711,0,-1.2277,-1.2308,-1.234,-1.2361,-1.2378,-1.2412,-1.2434,-1.2444,-1.2467,-1.2501,-1.2525,-1.2562,-1.2593,-1.2653,-1.2671,-1.2706,-1.2705,-1.2737,-1.2711,-1.2708,-1.2706,-1.2704,-1.2707,-1.2742,-1.2743,-1.2744,-1.2744,0,-1.2347,-1.2352,-1.2384,-1.2418,-1.2445,-1.2472,-1.2499,-1.2516,-1.253,-1.2556,-1.2594,-1.2618,-1.2665,-1.2702,-1.2738,-1.2754,-1.2752,-1.2753,-1.2762,-1.276,-1.2754,-1.2758,-1.2664,-1.275,-1.275,-1.2749,-1.2749,-1.2749,-1.2397,-1.2424,-1.2451,-1.2487,-1.2508,-1.2533,-1.2561,-1.2576,-1.2608,-1.2647,-1.2651,-1.2692,-1.272,-1.2768,-1.2786,-1.2819,-1.281,-1.2823,-1.2827,-1.283,-1.2832,-1.2749,-1.2826,-1.2826,-1.2826,-1.2825,-1.2825,0,-1.2467,-1.2485,-1.2517,-1.2554,-1.2582,-1.2578,-1.2607,-1.2631,-1.2667,-1.2693,-1.2723,-1.2768,-1.2804,-1.2825,-1.2861,-1.2884,-1.2884,-1.2893,-1.2891,-1.2895,-1.2838,-1.2826,-1.2893,-1.2893,-1.2893,-1.2893,-1.2893,-1.2892,-1.2507,-1.2554,-1.2562,-1.2619,-1.2636,-1.2677,-1.2694,-1.2717,-1.2738,-1.2787,-1.2817,-1.2831,-1.2855,-1.2894,-1.2927,-1.2932,-1.2946,-1.2956,-1.2961,-1.2906,-1.2899,-1.2893,-1.2882,-1.2959,-1.2959,-1.3015,-1.3016,-1.3016]}]]